Location: Nitra
(48.3167°N, 18.0833°E)
Time: 08:37:59
(UTC+01:00)

ISS - Visible Passes

Search period start: 19 February 2019 00:00
Search period end: 01 March 2019 00:00
Orbit: 403 x 411 km, 51.6° (Epoch: 19 February)

Date Brightness Start Highest point End Pass type
(mag) Time Alt. Az. Time Alt. Az. Time Alt. Az.
22 Feb -0.6 05:51:39 10° SSE 05:52:44 11° SE 05:53:48 10° ESE visible
24 Feb -1.5 05:43:15 10° SSW 05:45:54 23° SE 05:48:33 10° E visible
25 Feb -1.0 04:52:46 10° S 04:54:35 14° SE 04:56:25 10° ESE visible
26 Feb -2.9 05:36:01 10° SW 05:39:09 45° SSE 05:42:19 10° ENE visible
27 Feb -2.1 04:46:29 22° S 04:47:43 28° SE 04:50:35 10° E visible
28 Feb -1.1 03:57:12 16° ESE 03:57:12 16° ESE 03:58:37 10° E visible
28 Feb -3.8 05:29:55 15° WSW 05:32:29 84° SSE 05:35:47 10° ENE visible
